Regional Weather Roundup
Issued by NWS

Home | Current Version | Previous Version | Text Only | Print | Product List | Glossary On
Versions: 1 2 3 4 5 6 7 8 9 10 11 12 13 14 15 16 17 18 19 20 21 22 23 24 25 26 27 28 29 30 31 32 33 34 35 36 37 38 39 40 41 42 43 44 45 46 47 48 49 50
000
ASUS43 KTOP 251808
RWRKS

WEATHER ROUNDUP FOR KANSAS
NATIONAL WEATHER SERVICE GOODLAND KS
100 PM CDT WED APR 25 2018

NOTE:  "FAIR" INDICATES FEW OR NO CLOUDS BELOW 12,000 FEET WITH NO
SIGNIFICANT WEATHER AND/OR OBSTRUCTIONS TO VISIBILITY.

KSZ001>006-013>018-027>032-041>047-251900-
NORTHWEST KANSAS

CITY           SKY/WX    TMP DP  RH WIND       PRES   REMARKS
GOODLAND       SUNNY     51  30  44 N16G22    30.26F
6HR MIN TEMP:  31; 6HR MAX TEMP:  51;

HAYS           CLOUDY    50  35  56 N21       30.24F
HILL CITY      PTSUNNY   51  36  56 N17G26    30.26F
6HR MIN TEMP:  39; 6HR MAX TEMP:  52; 6HR PCP: TRACE;

RUSSELL        CLOUDY    47  40  76 N18       30.23F
6HR MIN TEMP:  41; 6HR MAX TEMP:  47; 6HR PCP:  0.01;

$$

KSZ061>065-074>080-084>089-251900-
SOUTHWEST KANSAS

CITY           SKY/WX    TMP DP  RH WIND       PRES   REMARKS
DODGE CITY     CLOUDY    46  36  68 N16G29    30.26F
6HR MIN TEMP:  37; 6HR MAX TEMP:  46;

ELKHART        SUNNY     55  33  42 N22G29    30.29F
GARDEN CITY    CLOUDY    47  36  65 N17G24    30.27F
6HR MIN TEMP:  33; 6HR MAX TEMP:  47;

GREAT BEND       N/A     46  39  76 NW17      30.24F
LIBERAL        CLOUDY    47  36  65 NW17      30.30F
PRATT          CLOUDY    45  38  78 N20       30.23F
6HR MIN TEMP:  40; 6HR MAX TEMP:  45;

$$

KSZ066>073-081>083-090>101-251900-
SOUTHEAST KANSAS

CITY           SKY/WX    TMP DP  RH WIND       PRES   REMARKS
CHANUTE        LGT RAIN  53  51  93 NW7       30.11F FOG
6HR MIN TEMP:  52; 6HR MAX TEMP:  54; 6HR PCP:  0.15;

COFFEYVILLE    LGT RAIN  52  50  93 NW7       30.12F
6HR MIN TEMP:  51; 6HR MAX TEMP:  54; 6HR PCP:  0.21;

HUTCHINSON     CLOUDY    46  43  89 N16       30.20F
6HR MIN TEMP:  44; 6HR MAX TEMP:  46; 6HR PCP:  0.03;

MEDICINE LODGE   N/A     46  41  82 N15G26    30.22F
NEWTON         LGT RAIN  44  43  96 N18       30.18F
PARSONS        LGT RAIN  52  51  97 NW7       30.12F
6HR MIN TEMP:  51; 6HR MAX TEMP:  55; 6HR PCP:  0.19;

WICHITA INTL   CLOUDY    47  45  93 NW16      30.18F
6HR MIN TEMP:  45; 6HR MAX TEMP:  47; 6HR PCP: TRACE;

WICHITA JABRA  CLOUDY    46  45  96 NW18      30.17F
6HR MIN TEMP:  45; 6HR MAX TEMP:  47; 6HR PCP: TRACE;

WICHITA MCCONL LGT RAIN  46  46  99 NW15      30.17  FOG
WINFIELD       CLOUDY    47  46  97 NW15      30.18F
6HR MIN TEMP:  46; 6HR MAX TEMP:  48; 6HR PCP:  0.13;

$$

KSZ007>012-019>026-033>040-048>060-102>105-251900-
NORTHEAST KANSAS

CITY           SKY/WX    TMP DP  RH WIND       PRES   REMARKS
CONCORDIA      CLOUDY    46  42  86 N12       30.21F
6HR MIN TEMP:  42; 6HR MAX TEMP:  46; 6HR PCP:  0.12;

EMPORIA        LGT RAIN  49  47  93 N10       30.13F FOG
6HR MIN TEMP:  48; 6HR MAX TEMP:  50; 6HR PCP:  0.21;

LAWRENCE       LGT RAIN  50  48  93 NE10      30.15F FOG
6HR MIN TEMP:  49; 6HR MAX TEMP:  50; 6HR PCP:  0.28;

MANHATTAN      LGT RAIN  47  44  90 N8        30.18F FOG
6HR MIN TEMP:  46; 6HR MAX TEMP:  50; 6HR PCP:  0.20;

MARYSVILLE     LGT RAIN  45  43  93 N15       30.20F
OLATHE IND     LGT RAIN  50  48  93 N8        30.14F FOG
6HR MIN TEMP:  49; 6HR MAX TEMP:  52; 6HR PCP:  0.18;

OLATHE EXE     RAIN      48  47  96 NE9       30.13F FOG
6HR MIN TEMP:  48; 6HR MAX TEMP:  52; 6HR PCP:  0.10;

SALINA         LGT RAIN  46  44  93 N16       30.21F
6HR MIN TEMP:  45; 6HR MAX TEMP:  46; 6HR PCP:  0.13;

TOPEKA BILLARD LGT RAIN  48  48 100 N6        30.15F
6HR MIN TEMP:  48; 6HR MAX TEMP:  50; 6HR PCP:  0.24;

TOPEKA FORBES  LGT RAIN  49  47  93 N9        30.15S FOG
6HR MIN TEMP:  49; 6HR MAX TEMP:  51; 6HR PCP:  0.21;

$$




USA.gov is the U.S. government's official web portal to all federal, state and local government web resources and services.